| time (UTC) | temp F | wind direction | speed MPH | gust MPH | rain 1hr in | rain 24hr in | rain mn in | humidity % | barometer mb |
| 20260507171530 | 56 | 25 | 0.0 | 0.0 | 0.00 | 0.00 | 0.00 | 68 | 1022.5 |
| 20260507170027 | 55 | 1 | 4.0 | 4.0 | 0.00 | 0.00 | 0.00 | 70 | 1022.6 |
| 20260507164522 | 53 | 236 | 2.0 | 3.0 | 0.00 | 0.00 | 0.00 | 73 | 1022.6 |
| 20260507163020 | 53 | 142 | 1.0 | 1.0 | 0.00 | 0.00 | 0.00 | 72 | 1022.6 |
| 20260507161520 | 53 | 334 | 2.0 | 2.0 | 0.00 | 0.00 | 0.00 | 74 | 1022.6 |
| 20260507160015 | 52 | 240 | 0.0 | 1.0 | 0.00 | 0.00 | 0.00 | 76 | 1022.6 |
| 20260507154510 | 51 | 100 | 2.0 | 3.0 | 0.00 | 0.00 | 0.00 | 76 | 1022.5 |
| 20260507153006 | 51 | 350 | 4.0 | 4.0 | 0.00 | 0.00 | 0.00 | 77 | 1022.6 |
| 20260507151507 | 50 | 279 | 1.0 | 1.0 | 0.00 | 0.00 | 0.00 | 78 | 1022.6 |
| 20260507150003 | 50 | 281 | 0.0 | 1.0 | 0.00 | 0.00 | 0.00 | 78 | 1022.7 |
| 20260507144458 | 50 | 334 | 4.0 | 4.0 | 0.00 | 0.00 | 0.00 | 79 | 1022.6 |
| 20260507142955 | 50 | 90 | 0.0 | 0.0 | 0.00 | 0.00 | 0.00 | 79 | 1022.6 |
| 20260507141450 | 49 | 8 | 1.0 | 1.0 | 0.00 | 0.00 | 0.00 | 79 | 1022.5 |
| 20260507135947 | 49 | 286 | 2.0 | 2.0 | 0.00 | 0.00 | 0.00 | 79 | 1022.5 |
| 20260507134444 | 49 | 345 | 2.0 | 3.0 | 0.00 | 0.00 | 0.00 | 78 | 1022.4 |
| 20260507132941 | 50 | 272 | 3.0 | 3.0 | 0.00 | 0.00 | 0.00 | 78 | 1022.2 |
| 20260507131436 | 50 | 75 | 0.0 | 0.0 | 0.00 | 0.00 | 0.00 | 80 | 1022.4 |
| 20260507125935 | 50 | 295 | 1.0 | 1.0 | 0.00 | 0.00 | 0.00 | 79 | 1022.4 |
| 20260507124431 | 50 | 313 | 2.0 | 3.0 | 0.00 | 0.00 | 0.00 | 79 | 1022.3 |
| 20260507122929 | 50 | 299 | 3.0 | 4.0 | 0.00 | 0.00 | 0.00 | 79 | 1022.3 |
| 20260507121427 | 50 | 240 | 1.0 | 1.0 | 0.00 | 0.00 | 0.00 | 80 | 1022.4 |
| 20260507115922 | 50 | 256 | 0.0 | 0.0 | 0.00 | 0.00 | 0.00 | 80 | 1022.5 |
| 20260507114423 | 51 | 308 | 4.0 | 4.0 | 0.00 | 0.00 | 0.00 | 79 | 1022.6 |
| 20260507112920 | 51 | 306 | 3.0 | 3.0 | 0.00 | 0.00 | 0.00 | 80 | 1022.5 |
| 20260507111418 | 51 | 313 | 3.0 | 3.0 | 0.00 | 0.00 | 0.00 | 79 | 1022.4 |
| 20260507105912 | 51 | 289 | 1.0 | 1.0 | 0.00 | 0.00 | 0.00 | 79 | 1022.5 |
| 20260507104408 | 51 | 325 | 1.0 | 2.0 | 0.00 | 0.00 | 0.00 | 80 | 1022.7 |
| 20260507102909 | 51 | 302 | 1.0 | 2.0 | 0.00 | 0.00 | 0.00 | 80 | 1022.8 |
| 20260507101408 | 52 | 303 | 2.0 | 2.0 | 0.00 | 0.00 | 0.00 | 80 | 1022.9 |
| 20260507095907 | 52 | 347 | 2.0 | 2.0 | 0.00 | 0.00 | 0.00 | 80 | 1023.0 |
| 20260507094402 | 52 | 293 | 1.0 | 1.0 | 0.00 | 0.00 | 0.00 | 80 | 1023.0 |
| 20260507092901 | 52 | 297 | 2.0 | 3.0 | 0.00 | 0.00 | 0.00 | 81 | 1023.2 |
| 20260507091356 | 52 | 257 | 0.0 | 0.0 | 0.00 | 0.00 | 0.00 | 82 | 1023.0 |
| 20260507085851 | 52 | 308 | 1.0 | 1.0 | 0.00 | 0.00 | 0.00 | 81 | 1023.0 |
| 20260507084348 | 52 | 306 | 1.0 | 2.0 | 0.00 | 0.00 | 0.00 | 81 | 1023.3 |
| 20260507082844 | 53 | 306 | 2.0 | 2.0 | 0.00 | 0.00 | 0.00 | 81 | 1023.2 |
| 20260507081338 | 53 | 322 | 2.0 | 2.0 | 0.00 | 0.00 | 0.00 | 81 | 1023.3 |
| 20260507075833 | 53 | 315 | 2.0 | 3.0 | 0.00 | 0.00 | 0.00 | 81 | 1023.4 |
| 20260507074329 | 53 | 276 | 2.0 | 2.0 | 0.00 | 0.00 | 0.00 | 81 | 1023.3 |
| 20260507072826 | 53 | 334 | 2.0 | 2.0 | 0.00 | 0.00 | 0.00 | 81 | 1023.1 |
| 20260507071324 | 53 | 286 | 2.0 | 3.0 | 0.00 | 0.00 | 0.00 | 80 | 1023.1 |
| 20260507065820 | 53 | 11 | 3.0 | 4.0 | 0.00 | 0.00 | 0.00 | 80 | 1023.1 |
| 20260507064318 | 53 | 267 | 4.0 | 6.0 | 0.00 | 0.00 | 0.00 | 80 | 1023.2 |
| 20260507062814 | 53 | 333 | 3.0 | 3.0 | 0.00 | 0.00 | 0.00 | 80 | 1023.4 |
| 20260507061313 | 54 | 315 | 4.0 | 4.0 | 0.00 | 0.00 | 0.00 | 79 | 1023.2 |
| 20260507055810 | 54 | 224 | 2.0 | 2.0 | 0.00 | 0.00 | 0.00 | 79 | 1023.2 |
| 20260507054310 | 54 | 212 | 0.0 | 0.0 | 0.00 | 0.00 | 0.00 | 79 | 1023.2 |
| 20260507052810 | 55 | 313 | 2.0 | 2.0 | 0.00 | 0.00 | 0.00 | 80 | 1023.2 |
| 20260507051307 | 55 | 304 | 6.0 | 6.0 | 0.00 | 0.00 | 0.00 | 80 | 1023.0 |
| 20260507045803 | 55 | 321 | 4.0 | 6.0 | 0.00 | 0.00 | 0.00 | 79 | 1023.1 |
| 20260507044259 | 56 | 333 | 5.0 | 6.0 | 0.00 | 0.00 | 0.00 | 79 | 1023.0 |
| 20260507042754 | 56 | 9 | 4.0 | 7.0 | 0.00 | 0.00 | 0.00 | 79 | 1023.0 |
| 20260507041249 | 57 | 321 | 4.0 | 4.0 | 0.00 | 0.00 | 0.00 | 79 | 1022.8 |
| 20260507035745 | 57 | 291 | 4.0 | 4.0 | 0.00 | 0.00 | 0.00 | 79 | 1022.5 |
| 20260507034240 | 57 | 276 | 3.0 | 3.0 | 0.00 | 0.00 | 0.00 | 79 | 1022.4 |
| 20260507032739 | 58 | 340 | 5.0 | 7.0 | 0.00 | 0.00 | 0.00 | 78 | 1022.3 |
| 20260507031235 | 58 | 320 | 4.0 | 4.0 | 0.00 | 0.00 | 0.00 | 78 | 1022.0 |
| 20260507025732 | 59 | 315 | 3.0 | 6.0 | 0.00 | 0.00 | 0.00 | 76 | 1021.8 |
| 20260507024230 | 60 | 249 | 4.0 | 4.0 | 0.00 | 0.00 | 0.00 | 75 | 1021.7 |
| 20260507022726 | 61 | 314 | 6.0 | 7.0 | 0.00 | 0.00 | 0.00 | 73 | 1021.7 |
| 20260507021225 | 62 | 322 | 7.0 | 9.0 | 0.00 | 0.00 | 0.00 | 72 | 1021.8 |
| 20260507015723 | 63 | 327 | 6.0 | 8.0 | 0.00 | 0.00 | 0.00 | 74 | 1021.7 |
| 20260507014219 | 63 | 319 | 2.0 | 3.0 | 0.00 | 0.00 | 0.00 | 74 | 1021.9 |
| 20260507012716 | 64 | 351 | 2.0 | 3.0 | 0.00 | 0.00 | 0.00 | 72 | 1021.7 |
| 20260507011216 | 64 | 334 | 5.0 | 7.0 | 0.00 | 0.00 | 0.00 | 71 | 1021.9 |
| 20260507005715 | 64 | 323 | 3.0 | 3.0 | 0.00 | 0.00 | 0.00 | 70 | 1021.8 |
| 20260507004212 | 65 | 328 | 4.0 | 6.0 | 0.00 | 0.00 | 0.00 | 69 | 1021.9 |
| 20260507002710 | 67 | 320 | 1.0 | 2.0 | 0.00 | 0.00 | 0.00 | 64 | 1021.8 |
| 20260507001206 | 68 | 302 | 2.0 | 4.0 | 0.00 | 0.00 | 0.00 | 61 | 1021.8 |
| 20260506235701 | 67 | 225 | 1.0 | 1.0 | 0.00 | 0.00 | 0.00 | 62 | 1022.0 |
| 20260506234157 | 65 | 160 | 0.0 | 0.0 | 0.00 | 0.00 | 0.00 | 67 | 1022.1 |
| 20260506232653 | 65 | 266 | 3.0 | 3.0 | 0.00 | 0.00 | 0.00 | 67 | 1021.8 |
| 20260506231150 | 65 | 326 | 6.0 | 7.0 | 0.00 | 0.00 | 0.00 | 69 | 1022.2 |
| 20260506225646 | 64 | 283 | 4.0 | 6.0 | 0.00 | 0.00 | 0.00 | 71 | 1022.4 |
| 20260506224141 | 66 | 315 | 5.0 | 8.0 | 0.00 | 0.00 | 0.00 | 69 | 1022.4 |
| 20260506222637 | 64 | 220 | 0.0 | 1.0 | 0.00 | 0.00 | 0.00 | 68 | 1022.3 |
| 20260506221135 | 66 | 204 | 3.0 | 3.0 | 0.00 | 0.00 | 0.00 | 66 | 1022.7 |
| 20260506215635 | 64 | 236 | 2.0 | 2.0 | 0.00 | 0.00 | 0.00 | 70 | 1022.5 |
| 20260506214131 | 65 | 235 | 1.0 | 1.0 | 0.00 | 0.00 | 0.00 | 70 | 1022.6 |
| 20260506212629 | 63 | 318 | 2.0 | 3.0 | 0.00 | 0.00 | 0.00 | 74 | 1022.8 |
| 20260506211129 | 64 | 155 | 0.0 | 0.0 | 0.00 | 0.00 | 0.00 | 70 | 1022.8 |
| 20260506205625 | 63 | 279 | 1.0 | 1.0 | 0.00 | 0.00 | 0.00 | 72 | 1022.7 |
| 20260506204120 | 62 | 224 | 0.0 | 0.0 | 0.00 | 0.00 | 0.00 | 75 | 1022.8 |
| 20260506202619 | 62 | 179 | 4.0 | 4.0 | 0.00 | 0.00 | 0.00 | 76 | 1022.8 |
| 20260506201115 | 62 | 336 | 1.0 | 1.0 | 0.00 | 0.00 | 0.00 | 77 | 1023.2 |
| 20260506195611 | 60 | 211 | 2.0 | 3.0 | 0.00 | 0.00 | 0.00 | 80 | 1022.9 |
| 20260506194107 | 60 | 314 | 2.0 | 3.0 | 0.00 | 0.00 | 0.00 | 81 | 1023.1 |
| 20260506192604 | 60 | 217 | 0.0 | 1.0 | 0.00 | 0.00 | 0.00 | 79 | 1023.0 |
| 20260506191104 | 59 | 297 | 2.0 | 2.0 | 0.00 | 0.00 | 0.00 | 83 | 1023.1 |
| 20260506185602 | 58 | 183 | 3.0 | 3.0 | 0.00 | 0.00 | 0.00 | 85 | 1023.0 |
| 20260506184059 | 59 | 217 | 0.0 | 1.0 | 0.00 | 0.00 | 0.00 | 84 | 1023.0 |
| 20260506182555 | 59 | 175 | 0.0 | 0.0 | 0.00 | 0.00 | 0.00 | 84 | 1023.2 |
| 20260506181053 | 58 | 296 | 1.0 | 2.0 | 0.00 | 0.00 | 0.00 | 84 | 1023.0 |
| 20260506175548 | 58 | 206 | 0.0 | 1.0 | 0.00 | 0.00 | 0.00 | 84 | 1022.7 |
| 20260506174045 | 58 | 299 | 2.0 | 2.0 | 0.00 | 0.00 | 0.00 | 86 | 1022.8 |
| 20260506172543 | 57 | 238 | 0.0 | 1.0 | 0.00 | 0.00 | 0.00 | 86 | 1022.8 |